Weather History for KSDM - July, 2013

Change the Weather History Date:

Thursday, July 18, 2013

  Actual Average Record
Temperature  
Mean Temperature 68 °F 69 °F  
Max Temperature 75 °F 78 °F 86 °F (2015)
Min Temperature 62 °F 61 °F 58 °F (1958)
Degree Days  
Heating Degree Days 0 0  
Month to date heating degree days 0  
Since 1 June heating degree days 31  
Since 1 July heating degree days 0  
Cooling Degree Days 4 4  
Month to date cooling degree days 65  
Year to date cooling degree days 150  
Since 1 June cooling degree days 108  
Growing Degree Days 18 (Base 50)    
Moisture  
Dew Point 61 °F    
Average Humidity 84    
Maximum Humidity 100    
Minimum Humidity 61    
Precipitation  
Precipitation 0.00 in 0.00 in 0.07 in (2015)
Month to date precipitation 0.06  
Year to date precipitation 8.45  
Sea Level Pressure  
Sea Level Pressure 29.95 in    
Wind  
Wind Speed 3 mph (WNW)    
Max Wind Speed 28 mph    
Max Gust Speed 91 mph    
Visibility 8 miles    
Events      
T = Trace of Precipitation, MM = Missing Value Source: NWS Daily Summary

Daily Weather History Graph

Daily Weather History Graph

Search for Another Location

Airport or City:

Trip Planner

Search our weather history database for the weather conditions in past years. The results will help you decide how hot, cold, wet, or windy it might be!

Date:

Astronomy

Jul. 18, 2013 Rise Set
Actual Time 5:53 AM PDT 7:54 PM PDT
Civil Twilight 5:25 AM PDT 8:22 PM PDT
Nautical Twilight 4:51 AM PDT 8:56 PM PDT
Astronomical Twilight 4:15 AM PDT 9:31 PM PDT
Moon 3:58 PM PDT (7/18) 1:44 AM PDT (7/18)
Length of Visible Light 14h 56m
Length of Day
14h 01m
Waxing Gibbous, 78% of the Moon is Illuminated
Jul 18
Waxing Gibbous
Jul 22
Full
Jul 29
Last Quarter
Aug 6
New
Aug 14
First Quarter

Hourly Weather History & Observations

Time (PDT) Temp. Dew Point Humidity Pressure Visibility Wind Dir Wind Speed Gust Speed Precip Events Conditions
12:53 AM 63.0 °F 62.1 °F 97% 29.98 in 6.0 mi Calm Calm - N/A   Overcast
1:09 AM 64.4 °F 64.4 °F 100% 29.99 in 2.0 mi Calm Calm - N/A   Overcast
1:16 AM 64.4 °F 64.4 °F 100% 29.99 in 1.0 mi Calm Calm - N/A   Overcast
1:49 AM 64.4 °F 64.4 °F 100% 29.98 in 2.5 mi West 3.5 mph - N/A   Overcast
1:53 AM 64.0 °F 63.0 °F 96% 29.97 in 4.0 mi West 3.5 mph - N/A   Overcast
2:53 AM 64.0 °F 64.0 °F 100% 29.95 in 5.0 mi Calm Calm - N/A   Overcast
3:26 AM 64.4 °F 62.6 °F 94% 29.97 in 7.0 mi Calm Calm - N/A   Overcast
3:53 AM 64.0 °F 63.0 °F 96% 29.95 in 9.0 mi Calm Calm - N/A   Overcast
4:53 AM 63.0 °F 61.0 °F 93% 29.95 in 8.0 mi Calm Calm - N/A   Overcast
5:53 AM 64.0 °F 61.0 °F 90% 29.96 in 9.0 mi Calm Calm - N/A   Overcast
6:53 AM 64.0 °F 60.1 °F 87% 29.97 in 9.0 mi NW 3.5 mph - N/A   Overcast
7:25 AM 64.4 °F 60.8 °F 88% 29.99 in 10.0 mi Calm Calm - N/A   Overcast
7:53 AM 64.9 °F 61.0 °F 87% 29.99 in 10.0 mi NNW 3.5 mph - N/A   Overcast
8:26 AM 66.2 °F 60.8 °F 83% 30.00 in 10.0 mi Variable 3.5 mph - N/A   Mostly Cloudy
8:42 AM 69.8 °F 60.8 °F 73% 30.00 in 10.0 mi Variable 3.5 mph - N/A   Scattered Clouds
8:53 AM 69.1 °F 61.0 °F 75% 29.99 in 10.0 mi NNW 3.5 mph - N/A   Partly Cloudy
9:53 AM 73.0 °F 60.1 °F 64% 29.98 in 10.0 mi Variable 3.5 mph - N/A   Clear
10:53 AM 75.0 °F 62.1 °F 64% 29.96 in 10.0 mi West 6.9 mph - N/A   Clear
11:53 AM 73.9 °F 61.0 °F 64% 29.96 in 10.0 mi WNW 10.4 mph - N/A   Clear
12:53 PM 73.0 °F 60.1 °F 64% 29.95 in 10.0 mi West 10.4 mph - N/A   Clear
1:53 PM 73.9 °F 60.1 °F 62% 29.94 in 10.0 mi West 10.4 mph - N/A   Clear
2:53 PM 73.0 °F 59.0 °F 61% 29.92 in 10.0 mi WNW 11.5 mph - N/A   Clear
3:53 PM 73.0 °F 59.0 °F 61% 29.90 in 10.0 mi WNW 10.4 mph 16.1 mph N/A   Clear
4:53 PM 72.0 °F 59.0 °F 64% 29.88 in 10.0 mi West 8.1 mph - N/A   Clear
5:53 PM 70.0 °F 60.1 °F 71% 29.88 in 10.0 mi West 9.2 mph - N/A   Clear
6:53 PM 68.0 °F 60.1 °F 76% 29.89 in 10.0 mi West 6.9 mph - N/A   Clear
7:53 PM 64.9 °F 59.0 °F 81% 29.90 in 10.0 mi West 6.9 mph - N/A   Clear
8:53 PM 63.0 °F 60.1 °F 90% 29.91 in 10.0 mi Calm Calm - N/A   Clear
9:43 PM 62.6 °F 60.8 °F 94% 29.93 in 9.0 mi West 3.5 mph - N/A   Scattered Clouds
9:53 PM 63.0 °F 60.1 °F 90% 29.92 in 8.0 mi West 3.5 mph - N/A   Mostly Cloudy
10:05 PM 62.6 °F 60.8 °F 94% 29.93 in 9.0 mi West 4.6 mph - N/A   Scattered Clouds
10:53 PM 62.1 °F 61.0 °F 96% 29.92 in 9.0 mi Calm Calm - N/A   Mostly Cloudy
11:36 PM 62.6 °F 60.8 °F 94% 29.92 in 8.0 mi WSW 5.8 mph - N/A   Scattered Clouds
11:53 PM 62.1 °F 60.1 °F 93% 29.91 in 8.0 mi WSW 27.6 mph 90.9 mph N/A   Squalls